Weather History for McCook, NE

Change the Weather History Date:

Saturday, December 31, 2011

  Actual Average Record
Temperature  
Mean Temperature 40 °F 27 °F  
Max Temperature 56 °F 40 °F 65 °F (1980)
Min Temperature 24 °F 14 °F -18 °F (1911)
Degree Days  
Heating Degree Days 26    
Moisture  
Dew Point 27 °F    
Average Humidity 73    
Maximum Humidity 96    
Minimum Humidity 25    
Precipitation  
Precipitation 0.05 in 0.02 in 0.10 in (1973)
Month to date precipitation 0.53 0.64  
Year to date precipitation 19.73 22.53  
Sea Level Pressure  
Sea Level Pressure 29.81 in    
Wind  
Wind Speed 17 mph (WNW)    
Max Wind Speed 43 mph    
Max Gust Speed 54 mph    
Visibility 9 miles    
Events Rain , Snow    
T = Trace of Precipitation, MM = Missing Value Source: NWS Daily Summary

Daily Weather History Graph

Daily Weather History Graph

Search for Another Location

Airport:

Trip Planner

Search our weather history database for the weather conditions in past years. The results will help you decide how hot, cold, wet, or windy it might be!

Date:

Astronomy

Dec. 31, 2011 Rise Set
Actual Time 8:04 AM CST 5:26 PM CST
Civil Twilight 7:34 AM CST 5:56 PM CST
Nautical Twilight 7:00 AM CST 6:30 PM CST
Astronomical Twilight 6:26 AM CST 7:03 PM CST
Moon 11:50 AM CST (12/31) 12:03 AM CST (12/31)
Length of Visible Light 10h 22m
Length of Day
9h 21m
Waxing Crescent, 45% of the Moon is Illuminated
Dec 31
Waxing Crescent
Jan 1
First Quarter
Jan 9
Full
Jan 16
Last Quarter
Jan 23
New

Hourly Weather History & Observations

Time (CST) Temp. Windchill Dew Point Humidity Pressure Visibility Wind Dir Wind Speed Gust Speed Precip Events Conditions
12:53 AM 30.0 °F 24.1 °F 26.1 °F 85% 29.71 in 10.0 mi WSW 5.8 mph - N/A   Clear
1:53 AM 28.9 °F 22.8 °F 26.1 °F 89% 29.69 in 10.0 mi SW 5.8 mph - N/A   Clear
2:53 AM 28.0 °F 22.8 °F 26.1 °F 92% 29.67 in 10.0 mi West 4.6 mph - N/A   Clear
3:53 AM 28.0 °F - 26.1 °F 92% 29.64 in 10.0 mi Calm Calm - N/A   Clear
4:53 AM 28.9 °F 23.9 °F 26.1 °F 89% 29.60 in 10.0 mi SW 4.6 mph - N/A   Clear
5:53 AM 28.4 °F - 26.6 °F 93% 29.53 in 10.0 mi Calm Calm - N/A   Clear
6:53 AM 26.1 °F 20.5 °F 24.1 °F 92% 29.55 in 10.0 mi SW 4.6 mph - N/A   Clear
7:53 AM 24.1 °F 17.0 °F 23.0 °F 96% 29.54 in 10.0 mi North 5.8 mph - N/A   Clear
8:53 AM 34.0 °F 25.0 °F 28.9 °F 82% 29.55 in 10.0 mi West 12.7 mph - N/A   Clear
9:53 AM 43.0 °F 34.2 °F 28.9 °F 58% 29.59 in 10.0 mi West 20.7 mph 29.9 mph N/A   Clear
10:53 AM 55.0 °F - 25.0 °F 31% 29.62 in 10.0 mi WNW 26.5 mph 48.3 mph N/A   Clear
11:53 AM 53.1 °F - 18.0 °F 25% 29.63 in 9.0 mi NW 32.2 mph 43.7 mph N/A   Scattered Clouds
12:53 PM 52.0 °F - 17.1 °F 25% 29.66 in 10.0 mi WNW 39.1 mph 46.0 mph N/A   Mostly Cloudy
1:26 PM 51.8 °F - 17.6 °F 26% 29.63 in 7.0 mi WNW 36.8 mph 46.0 mph N/A   Overcast
1:53 PM 51.1 °F - 19.0 °F 28% 29.67 in 8.0 mi WNW 27.6 mph 42.6 mph N/A   Mostly Cloudy
2:22 PM 51.8 °F - 19.4 °F 28% 29.65 in 10.0 mi WNW 21.9 mph 38.0 mph N/A   Partly Cloudy
2:53 PM 46.9 °F - 27.0 °F 46% 29.71 in 10.0 mi NW 42.6 mph 54.1 mph N/A   Scattered Clouds
3:25 PM 37.4 °F 25.0 °F 35.6 °F 93% 29.76 in 2.5 mi NW 29.9 mph 48.3 mph 0.01 in Rain Rain
3:35 PM 37.4 °F 24.2 °F 35.6 °F 93% 29.77 in 4.0 mi NNW 34.5 mph 40.3 mph 0.02 in Rain Light Rain
3:53 PM 37.0 °F 23.3 °F 34.0 °F 89% 29.88 in 3.0 mi NNW 36.8 mph 50.6 mph 0.02 in Snow Light Snow
4:07 PM 35.6 °F 21.0 °F 33.8 °F 93% 29.84 in 2.5 mi NW 39.1 mph 49.5 mph 0.02 in Snow Light Snow
4:19 PM 35.6 °F 21.1 °F 33.8 °F 93% 29.87 in 5.0 mi NNW 38.0 mph 54.1 mph 0.03 in Snow Light Snow
4:28 PM 35.6 °F 21.5 °F 33.8 °F 93% 29.88 in 9.0 mi NW 35.7 mph 49.5 mph 0.03 in   Overcast
4:53 PM 36.0 °F 21.6 °F 33.1 °F 89% 29.98 in 7.0 mi NW 38.0 mph 49.5 mph 0.03 in Snow Light Snow
5:18 PM 37.4 °F 23.3 °F 32.0 °F 81% 29.95 in 10.0 mi NW 40.3 mph 50.6 mph 0.00 in   Overcast
5:53 PM 37.9 °F 24.6 °F 30.9 °F 76% 30.07 in 10.0 mi NNW 36.8 mph 51.8 mph 0.00 in   Overcast
6:53 PM 37.0 °F 26.7 °F 30.0 °F 76% 30.15 in 10.0 mi WNW 19.6 mph 31.1 mph N/A   Mostly Cloudy
7:53 PM 36.0 °F 24.7 °F 28.9 °F 76% 30.21 in 10.0 mi WNW 21.9 mph 28.8 mph N/A   Mostly Cloudy
8:53 PM 35.1 °F 23.8 °F 27.0 °F 72% 30.23 in 10.0 mi NW 20.7 mph - N/A   Clear
9:53 PM 32.0 °F 21.2 °F 25.0 °F 75% 30.26 in 10.0 mi WNW 16.1 mph - N/A   Clear
10:53 PM 32.0 °F 21.2 °F 24.8 °F 75% 30.26 in 10.0 mi WNW 16.1 mph - N/A   Clear
11:53 PM 30.9 °F 20.2 °F 23.0 °F 72% 30.33 in 10.0 mi WNW 15.0 mph - N/A   Clear